Location: Mt. Cuba Astronomical Observatory
(39.8100°N, 75.6300°W)
Time: 02:47:26
(UTC-05:00)

Daily predictions for brighter satellites

Satellite Brightness Start Highest point End
(mag) Time Altitude Azimuth Time Altitude Azimuth Time Altitude Azimuth
SL-16 R/B 4.3 04:27:06 15° N 04:27:06 15° N 04:28:05 10° NNE
Cosmos 1238 Rocket 4.1 04:24:54 56° SE 04:24:54 56° SE 04:29:51 10° SSE
USA 215 3.9 04:22:06 10° NE 04:28:25 50° SE 04:32:45 20° SSW
Cosmos 44 Rocket 4.0 04:34:58 46° SSE 04:36:00 54° ESE 04:41:00 10° NE
Cosmos 1371 Rocket 4.1 04:38:36 74° ENE 04:38:36 74° ENE 04:43:46 10° SSE
CENTAUR R/B 3.9 04:41:20 26° N 04:41:20 26° N 04:45:10 10° NNE
USA 32 4.0 04:43:48 84° SE 04:43:48 84° SE 04:48:55 10° S
BREEZE-M DEB (TANK) 4.1 04:42:55 46° S 04:43:59 58° SE 04:55:00 10° ENE
SL-08 ROCKET BODY 4.2 04:38:27 10° S 04:44:25 85° W 04:50:20 10° N
Lacrosse 5 1.9 04:44:47 76° ESE 04:44:47 76° ESE 04:49:48 10° NE
Cosmos 1300 Rocket 4.2 04:43:57 10° S 04:48:15 54° E 04:52:34 10° NNE
Cosmos 2327 Rocket 4.4 04:54:09 10° SSW 05:00:29 69° W 05:06:47 10° N
Cosmos 1346 Rocket 4.0 05:05:51 31° S 05:05:51 31° S 05:07:59 10° S
Cosmos 2074 Rocket 4.0 05:03:49 10° SSW 05:09:56 54° W 05:16:04 10° N
Tiangong 2 2.3 05:13:30 38° NE 05:13:30 38° NE 05:15:46 10° E
Meteor 2-4 Rocket 4.5 05:10:47 10° N 05:16:11 52° ENE 05:21:43 10° SSE
Cosmos 2341 Rocket 4.4 05:12:06 10° S 05:18:19 66° E 05:24:31 10° NNE
Cosmos 2369 Rocket 2.5 05:14:30 17° NNW 05:18:56 66° ENE 05:24:35 10° SSE
CRYOSAT 2 4.2 05:14:16 10° S 05:19:08 74° W 05:24:02 10° N
SKYMED 2 3.5 05:15:39 10° SSE 05:20:00 86° ENE 05:22:50 21° N
Cosmos 1603 3.9 05:18:59 38° WSW 05:20:34 47° WNW 05:26:03 10° NNE
SJ-6F 4.4 05:22:13 10° N 05:26:13 54° WNW 05:30:10 10° SSW
Kosmos-1675 4.5 05:25:06 10° S 05:27:33 50° ESE 05:35:34 10° NE
Cosmos 2184 Rocket 4.3 05:22:32 10° SW 05:28:16 40° WNW 05:34:05 10° N
NOAA 6 4.0 05:24:46 10° N 05:29:48 58° WNW 05:34:50 10° SSW
Cosmos 44 3.4 05:25:17 10° SSW 05:30:40 87° WNW 05:35:55 10° NNE
SL-24 R/B 4.5 05:35:00 10° NNE 05:40:20 82° ESE 05:44:52 10° S
Cosmos 1536 2.6 05:36:28 10° SSW 05:40:26 74° W 05:44:27 10° N
USA 229 DEB 3.9 05:34:27 10° SSW 05:41:17 74° ESE 05:48:14 10° NE
USA 229 3.9 05:34:34 10° SSW 05:41:24 74° ESE 05:48:20 10° NE
USA 129 3.8 05:39:51 10° SE 05:41:43 27° ENE 05:42:56 16° NNE
Cosmos 1025 Rocket 3.0 05:39:06 10° N 05:43:31 84° E 05:47:51 10° S
Cosmos 1943 3.1 05:37:57 10° SSW 05:43:32 68° WNW 05:49:11 10° NNE
CZ-4 R/B 3.2 05:40:13 10° NNE 05:43:48 33° E 05:47:21 10° SSE
Cosmos 2154 Rocket 4.0 05:38:02 10° SSW 05:44:07 59° W 05:50:15 10° N
Cosmos 1633 3.2 05:47:04 10° SW 05:50:22 32° WNW 05:53:40 10° NNW
Abrixas rocket 3.2 05:55:53 27° NW 05:56:48 32° NNW 05:59:52 10° NE
Cosmos 1943 Rocket 2.6 05:51:49 10° NNW 05:57:17 62° ENE 06:02:43 10° SE
Cosmos 468 4.5 05:52:46 10° SSW 05:58:01 86° WNW 06:03:21 10° NNE
DELTA 2 R/B(2) 3.4 05:59:39 25° W 06:00:54 86° S 06:02:38 10° E
Cosmos 2056 Rocket 4.5 05:59:37 19° WNW 06:01:36 25° W 06:05:40 10° SSW
Okean 1 Rocket 3.9 05:58:02 10° SW 06:01:50 28° WNW 06:05:36 10° NNW
Cosmos 1420 Rocket 4.2 05:57:03 10° NNW 06:02:19 75° ENE 06:07:30 10° SSE
Cosmos 1544 Rocket 3.7 05:59:42 10° S 06:04:02 76° E 06:08:26 10° N
CZ-3 R/B 3.1 05:57:06 10° WSW 06:04:46 23° S 06:08:10 10° SE
Lacrosse 4 Rocket 2.6 06:03:47 10° NNW 06:07:41 39° ENE 06:11:30 10° SE
COSMO-SKYMED 1 3.5 06:04:28 10° SSW 06:08:10 27° W 06:11:25 12° NW
USA 215 3.5 06:05:08 10° NE 06:11:23 50° NW 06:17:36 10° WSW
Ariane Rocket 3.3 06:08:03 10° N 06:12:48 43° WNW 06:17:33 10° SW
SL-8 Rocket 4.0 06:07:13 10° SSW 06:13:28 76° W 06:19:43 10° N
Cosmos 1048 Rocket 4.0 06:10:29 10° SSW 06:15:37 90° NNW 06:20:49 10° NNE
CZ-2C R/B 3.0 06:10:48 10° NNE 06:15:57 66° E 06:20:56 10° S
SPOT 3 Rocket 4.2 06:10:59 10° NNE 06:16:05 59° ESE 06:21:08 10° S
Meteor 1-29 3.8 06:20:48 10° SSE 06:24:03 50° ENE 06:27:21 10° N
AQUARIUS 4.4 06:19:40 10° NNE 06:24:11 79° ESE 06:28:41 10° S
Cosmos 1500 4.3 06:20:56 10° SSE 06:24:32 47° E 06:28:09 10° NNE
Cosmos 1975 3.4 06:21:40 10° S 06:25:43 66° E 06:29:47 10° NNE
Cosmos 2366 rocket 4.0 06:19:41 10° S 06:25:59 83° W 06:32:22 10° N
Cosmos 1959 Rocket 4.4 06:21:06 10° SSW 06:27:11 71° W 06:33:17 10° N
Lacrosse 5 3.1 06:24:03 10° W 06:28:09 24° NNW 06:32:17 10° NNE
Cosmos 1892 Rocket 3.8 06:25:05 10° NNW 06:29:26 53° W 06:33:47 10° S
Meteor 1-28 Rocket 4.4 06:26:44 10° SSW 06:29:51 24° W 06:32:59 10° NW
Helios 1B rocket 2.5 06:28:03 10° SSE 06:32:12 89° W 06:36:22 10° NNW
CENTAUR R/B 4.5 06:30:07 10° NNW 06:32:23 12° NNW 06:34:44 10° N
Cosmos 2218 Rocket 4.1 06:28:00 10° SSW 06:34:19 63° W 06:40:41 10° N
MOS 1 4.3 06:34:46 10° NNE 06:40:26 84° WNW 06:46:06 10° SSW
Cosmos 1340 3.4 06:38:29 10° NNW 06:41:53 32° W 06:45:17 10° SSW
IDEFIX/ARIANE 42P 2.5 06:36:53 10° N 06:42:05 75° WNW 06:47:15 10° SSW
Cosmos 1626 Rocket 3.9 06:37:59 10° N 06:42:25 72° E 06:46:47 10° SSE
CSL-04 Rocket 4.4 06:38:22 10° N 06:43:11 31° WNW 06:47:57 10° SW
Cosmos 1461 2.9 06:40:01 10° SSW 06:44:21 85° WNW 06:48:33 10° NNE
